Flag for Russia Weather past 2 weeks in Kaliningrad, Russia

Now
46 °F

Passing clouds.


Feels Like: 41 °F
Forecast: 25 / 54 °F
Wind: 10 mph from North

Location: Kaliningrad/Khrabrovo Airport


UV Index: 3 (Moderate)

Visibility: N/A


Pressure: 30.36 "Hg

Humidity: 57%

Dew point: 32 °F

Location of KaliningradLocation

Historic Weather in Kaliningrad

°F

Kaliningrad temperature yesterday

Maximum temperature yesterday: 50 °F (at 2:30 PM)
Minimum temperature yesterday: 39 °F (at 5:30 AM)
Average temperature yesterday: 43 °F

Past Weeks' High & Low Weather Summary

 TemperatureHumidityPressure
High70 °F (Apr 8, 5:30 PM)94% (Apr 7, 11:00 AM)30.36 "Hg (Apr 7, 11:00 AM)
Low27 °F (Apr 2, 2:00 AM)24% (Apr 5, 3:30 PM)29.56 "Hg (Apr 14, 1:00 PM)
Average44 °F73%29.94 "Hg
* Reported Apr 1 1:00 PM — Apr 16 1:00 PM, Kaliningrad, Weather by CustomWeather, © 2014

Note: Actual official high and low records may vary slightly from our data, if they occured in-between our weather recording intervals... More about our weather records

Advertising

Historic Weather Conditions — Data for Previous 24 hours

 ConditionsComfort  
Time TempWeatherWind HumidityBarometerVisibility
1:00 PM
Apr 16
46 °FPassing clouds.13 mph57%30.36 "HgN/A
12:30 PM45 °FPassing clouds.13 mph66%30.33 "HgN/A
12:00 PM45 °FPassing clouds.13 mph66%30.33 "HgN/A
11:30 AM45 °FPassing clouds.13 mph66%30.33 "HgN/A
11:00 AM45 °FScattered clouds.13 mph71%30.30 "HgN/A
10:30 AM43 °FScattered clouds.10 mph71%30.30 "HgN/A
10:00 AM43 °FScattered clouds.10 mph71%30.30 "HgN/A
9:30 AM43 °FPartly sunny.10 mph71%30.27 "HgN/A
9:00 AM43 °FPartly sunny.13 mph71%30.27 "HgN/A
8:30 AM41 °FPassing clouds.10 mph76%30.24 "HgN/A
8:00 AM41 °FPartly cloudy.10 mph76%30.24 "HgN/A
7:30 AM41 °FPartly cloudy.10 mph81%30.24 "HgN/A
7:00 AM39 °FPassing clouds.10 mph81%30.21 "HgN/A
6:30 AM39 °FPassing clouds.10 mph81%30.21 "HgN/A
6:00 AM39 °FPassing clouds.10 mph81%30.18 "HgN/A
5:30 AM39 °FPassing clouds.8 mph81%30.18 "HgN/A
5:00 AM39 °FOvercast.10 mph81%30.18 "HgN/A
4:30 AM39 °FOvercast.8 mph81%30.18 "HgN/A
4:00 AM39 °FOvercast.8 mph81%30.15 "HgN/A
2:00 AM39 °FOvercast.13 mph81%30.12 "HgN/A
1:00 AM39 °FOvercast.13 mph81%30.12 "HgN/A
12:00 AM39 °FPassing clouds.13 mph81%30.09 "HgN/A
11:30 PM
Apr 15
39 °FPassing clouds.17 mph81%30.09 "HgN/A
11:00 PM39 °FPassing clouds.13 mph81%30.07 "HgN/A
10:30 PM39 °FScattered clouds.15 mph81%30.07 "HgN/A
10:00 PM39 °FScattered clouds.17 mph81%30.04 "HgN/A
9:30 PM39 °FPassing clouds.15 mph81%30.04 "HgN/A
9:00 PM41 °FScattered clouds.15 mph76%30.01 "HgN/A
8:30 PM41 °FScattered clouds.15 mph81%30.01 "HgN/A
8:00 PM41 °FScattered clouds.15 mph81%29.98 "HgN/A
7:30 PM41 °FBroken clouds.15 mph81%29.98 "HgN/A
7:00 PM43 °FBroken clouds.20 mph81%29.98 "HgN/A
6:30 PM43 °FBroken clouds.15 mph81%29.95 "HgN/A
6:00 PM45 °FBroken clouds.13 mph76%29.95 "HgN/A
5:30 PM45 °FPartly sunny.13 mph76%29.92 "HgN/A
5:00 PM45 °FPartly sunny.13 mph76%29.92 "HgN/A
4:30 PM45 °FPartly sunny.10 mph76%29.89 "HgN/A
4:00 PM46 °FPartly sunny.10 mph76%29.89 "HgN/A
3:30 PM46 °FPartly sunny.10 mph76%29.89 "HgN/A
3:00 PM45 °FPartly sunny.13 mph76%29.86 "HgN/A
2:30 PM50 °FScattered clouds.8 mph62%29.86 "HgN/A
2:00 PM48 °FScattered clouds.8 mph71%29.86 "HgN/A
Weather by CustomWeather, © 2014

See weather overview